When you browse on this site, cookies collect data to enhance your experience and personalize the content and advertising you see.
Visit our Privacy Policy to learn more. By continuing to use the site, you agree to this use of cookies and data.
  • în România
  • Lista ţărilor
  • Pe 7 zile
  • Temperatura apei
  • Hartă satelitară
  • Meteo pe hartă
  • Widget-uri
  • user-avatar
    Intrare

    Meteo pe oră la Levokumka

    Astăzi, 19 Noiembrie, Luni

    Timp Temperatura Precipitaţii Vânt Presiune Umiditate
    00:00 +5°C° 0 mm 1 m/s 742 mmHg 92%
    01:00 +5°C° 0 mm 1 m/s 742 mmHg 93%
    02:00 +4°C° 0 mm 1 m/s 742 mmHg 93%
    03:00 +4°C° 0 mm 1 m/s 742 mmHg 93%
    04:00 +4°C° 0 mm 1 m/s 742 mmHg 92%
    05:00 +4°C° 0 mm 1 m/s 742 mmHg 91%
    06:00 +4°C° 0 mm 1 m/s 742 mmHg 90%
    07:00 +4°C° 0 mm 1 m/s 742 mmHg 88%
    08:00 +4°C° 0 mm 2 m/s 741 mmHg 85%
    09:00 +4°C° 0 mm 2 m/s 741 mmHg 83%
    10:00 +5°C° 0 mm 2 m/s 741 mmHg 81%
    11:00 +4°C° 0 mm 3 m/s 741 mmHg 79%
    12:00 +5°C° 0 mm 3 m/s 740 mmHg 77%
    13:00 +5°C° 0 mm 3 m/s 740 mmHg 77%
    14:00 +5°C° 0 mm 3 m/s 740 mmHg 77%
    15:00 +5°C° 0 mm 3 m/s 740 mmHg 77%
    16:00 +4°C° 0 mm 3 m/s 740 mmHg 79%
    17:00 +4°C° 0 mm 3 m/s 740 mmHg 81%
    18:00 +3°C° 0 mm 3 m/s 740 mmHg 84%
    19:00 +3°C° 0 mm 3 m/s 740 mmHg 83%
    20:00 +2°C° 0 mm 3 m/s 740 mmHg 82%
    21:00 +2°C° 0 mm 3 m/s 739 mmHg 82%
    22:00 +2°C° 0 mm 3 m/s 739 mmHg 81%
    23:00 +2°C° 0 mm 3 m/s 739 mmHg 80%

    Mâine, 20 Noiembrie, Marţi

    Timp Temperatura Precipitaţii Vânt Presiune Umiditate
    00:00 +2°C° 0 mm 3 m/s 738 mmHg 79%
    01:00 +2°C° 0 mm 3 m/s 738 mmHg 80%
    02:00 +3°C° 0 mm 2 m/s 738 mmHg 81%
    03:00 +3°C° 0 mm 2 m/s 738 mmHg 82%
    04:00 +3°C° 0 mm 2 m/s 738 mmHg 81%
    05:00 +3°C° 0 mm 2 m/s 737 mmHg 81%
    06:00 +4°C° 0 mm 2 m/s 737 mmHg 80%
    07:00 +4°C° 0 mm 2 m/s 737 mmHg 79%
    08:00 +4°C° 0 mm 2 m/s 737 mmHg 78%
    09:00 +5°C° 0 mm 2 m/s 737 mmHg 77%
    10:00 +6°C° 0.2 mm 1 m/s 737 mmHg 77%
    11:00 +6°C° 0.2 mm 1 m/s 736 mmHg 77%
    12:00 +7°C° 0.2 mm 1 m/s 736 mmHg 77%
    13:00 +7°C° 0.4 mm 1 m/s 736 mmHg 78%
    14:00 +7°C° 0.4 mm 1 m/s 736 mmHg 80%
    15:00 +7°C° 0.4 mm 1 m/s 736 mmHg 81%
    16:00 +7°C° 0 mm 1 m/s 736 mmHg 82%
    17:00 +6°C° 0 mm 1 m/s 736 mmHg 83%
    18:00 +6°C° 0 mm 1 m/s 736 mmHg 84%
    19:00 +6°C° 0 mm 1 m/s 736 mmHg 82%
    20:00 +7°C° 0 mm 1 m/s 736 mmHg 80%
    21:00 +7°C° 0 mm 1 m/s 736 mmHg 78%
    22:00 +7°C° 0 mm 1 m/s 736 mmHg 79%
    23:00 +7°C° 0 mm 2 m/s 736 mmHg 81%

    Poimâine, 21 Noiembrie, Miercuri

    Timp Temperatura Precipitaţii Vânt Presiune Umiditate
    00:00 +7°C° 0 mm 2 m/s 736 mmHg 83%
    01:00 +7°C° 0 mm 3 m/s 737 mmHg 84%
    02:00 +7°C° 0 mm 3 m/s 737 mmHg 86%
    03:00 +7°C° 0 mm 3 m/s 737 mmHg 88%
    04:00 +5°C° 0 mm 3 m/s 737 mmHg 89%
    05:00 +5°C° 0 mm 3 m/s 737 mmHg 89%
    06:00 +6°C° 0 mm 2 m/s 737 mmHg 90%
    07:00 +6°C° 0 mm 2 m/s 737 mmHg 89%
    08:00 +6°C° 0 mm 2 m/s 737 mmHg 87%
    09:00 +6°C° 0 mm 2 m/s 738 mmHg 86%
    10:00 +8°C° 0 mm 1 m/s 737 mmHg 83%
    11:00 +8°C° 0 mm 1 m/s 737 mmHg 80%
    12:00 +9°C° 0 mm 1 m/s 736 mmHg 78%
    13:00 +9°C° 0.1 mm 1 m/s 736 mmHg 78%
    14:00 +9°C° 0.1 mm 1 m/s 736 mmHg 79%
    15:00 +7°C° 0.1 mm 2 m/s 735 mmHg 80%
    16:00 +7°C° 0.7 mm 2 m/s 735 mmHg 83%
    17:00 +6°C° 0.7 mm 2 m/s 735 mmHg 86%
    18:00 +6°C° 0.7 mm 2 m/s 735 mmHg 90%
    19:00 +5°C° 1.1 mm 2 m/s 735 mmHg 91%
    20:00 +5°C° 1.1 mm 2 m/s 735 mmHg 92%
    21:00 +6°C° 1.1 mm 1 m/s 735 mmHg 93%
    22:00 +5°C° 0.4 mm 2 m/s 735 mmHg 93%
    23:00 +5°C° 0.4 mm 2 m/s 735 mmHg 93%

    22 Noiembrie, Joi

    Timp Temperatura Precipitaţii Vânt Presiune Umiditate
    00:00 +5°C° 0.4 mm 2 m/s 735 mmHg 93%
    01:00 +4°C° 0.3 mm 2 m/s 735 mmHg 93%
    02:00 +4°C° 0.3 mm 2 m/s 735 mmHg 93%
    03:00 +4°C° 0.3 mm 2 m/s 735 mmHg 93%
    04:00 +4°C° 0.3 mm 2 m/s 735 mmHg 93%
    05:00 +4°C° 0.3 mm 2 m/s 735 mmHg 93%
    06:00 +4°C° 0.3 mm 2 m/s 735 mmHg 92%
    07:00 +4°C° 0.1 mm 2 m/s 735 mmHg 91%
    08:00 +4°C° 0.1 mm 2 m/s 736 mmHg 90%
    09:00 +4°C° 0.1 mm 2 m/s 736 mmHg 89%
    10:00 +4°C° 0 mm 2 m/s 736 mmHg 87%
    11:00 +5°C° 0 mm 2 m/s 736 mmHg 85%
    12:00 +5°C° 0 mm 2 m/s 735 mmHg 83%
    13:00 +5°C° 0 mm 2 m/s 735 mmHg 82%
    14:00 +6°C° 0 mm 1 m/s 735 mmHg 81%
    15:00 +6°C° 0 mm 1 m/s 735 mmHg 81%
    16:00 +6°C° 0 mm 1 m/s 735 mmHg 82%
    17:00 +6°C° 0 mm 1 m/s 736 mmHg 83%
    18:00 +5°C° 0 mm 1 m/s 736 mmHg 84%
    19:00 +5°C° 0 mm 1 m/s 736 mmHg 86%
    20:00 +5°C° 0 mm 1 m/s 736 mmHg 87%
    21:00 +3°C° 0 mm 0 m/s 736 mmHg 88%
    22:00 +4°C° 0 mm 1 m/s 737 mmHg 88%
    23:00 +4°C° 0 mm 1 m/s 737 mmHg 88%

    23 Noiembrie, Vineri

    Timp Temperatura Precipitaţii Vânt Presiune Umiditate
    00:00 +4°C° 0 mm 1 m/s 737 mmHg 88%
    01:00 +3°C° 0 mm 1 m/s 737 mmHg 89%
    02:00 +3°C° 0 mm 1 m/s 737 mmHg 89%
    03:00 +2°C° 0 mm 2 m/s 737 mmHg 89%
    04:00 +2°C° 0 mm 2 m/s 738 mmHg 89%
    05:00 +1°C° 0 mm 2 m/s 738 mmHg 88%
    06:00 +1°C° 0 mm 2 m/s 738 mmHg 87%
    07:00 +1°C° 0 mm 3 m/s 739 mmHg 83%
    08:00 +1°C° 0 mm 3 m/s 739 mmHg 79%
    09:00 +1°C° 0 mm 3 m/s 740 mmHg 75%
    10:00 +2°C° 0 mm 3 m/s 740 mmHg 69%
    11:00 +3°C° 0 mm 4 m/s 740 mmHg 63%
    12:00 +4°C° 0 mm 4 m/s 740 mmHg 57%
    13:00 +4°C° 0 mm 4 m/s 740 mmHg 56%
    14:00 +4°C° 0 mm 3 m/s 741 mmHg 55%
    15:00 +4°C° 0 mm 3 m/s 741 mmHg 54%
    16:00 +3°C° 0 mm 3 m/s 742 mmHg 59%
    17:00 +3°C° 0 mm 2 m/s 743 mmHg 65%
    18:00 +1°C° 0 mm 2 m/s 743 mmHg 70%
    19:00 +1°C° 0 mm 2 m/s 744 mmHg 73%
    20:00 +1°C° 0 mm 1 m/s 745 mmHg 76%
    21:00 +1°C° 0 mm 1 m/s 745 mmHg 78%
    22:00 +1°C° 0 mm 1 m/s 745 mmHg 80%
    23:00 0°C° 0 mm 1 m/s 745 mmHg 81%

    24 Noiembrie, Sâmbătă

    Timp Temperatura Precipitaţii Vânt Presiune Umiditate
    00:00 0°C° 0 mm 1 m/s 746 mmHg 82%
    01:00 -2°C° 0 mm 2 m/s 746 mmHg 83%
    02:00 -2°C° 0 mm 2 m/s 746 mmHg 84%
    03:00 -2°C° 0 mm 2 m/s 746 mmHg 84%
    04:00 -2°C° 0 mm 2 m/s 746 mmHg 84%
    05:00 -2°C° 0 mm 2 m/s 746 mmHg 85%
    06:00 -2°C° 0 mm 2 m/s 746 mmHg 85%
    07:00 -2°C° 0 mm 3 m/s 746 mmHg 82%
    08:00 -1°C° 0 mm 3 m/s 746 mmHg 79%
    09:00 -1°C° 0 mm 3 m/s 747 mmHg 76%
    10:00 0°C° 0 mm 3 m/s 746 mmHg 72%
    11:00 0°C° 0 mm 4 m/s 746 mmHg 68%
    12:00 +1°C° 0 mm 4 m/s 745 mmHg 64%
    13:00 +3°C° 0 mm 4 m/s 745 mmHg 64%
    14:00 +3°C° 0 mm 4 m/s 745 mmHg 65%
    15:00 +3°C° 0 mm 4 m/s 745 mmHg 66%
    16:00 +2°C° 0 mm 3 m/s 745 mmHg 71%
    17:00 0°C° 0 mm 3 m/s 745 mmHg 75%
    18:00 -1°C° 0 mm 3 m/s 745 mmHg 80%
    19:00 -1°C° 0 mm 2 m/s 745 mmHg 79%
    20:00 -1°C° 0 mm 2 m/s 745 mmHg 79%
    21:00 -1°C° 0 mm 2 m/s 744 mmHg 78%
    22:00 -1°C° 0 mm 2 m/s 744 mmHg 77%
    23:00 -1°C° 0 mm 2 m/s 744 mmHg 77%
    Arată mai mult